This is the latest recevied weather packets stored in our database for station/object E70ARA-3. If no packets are shown the sender has not sent any weather packets the latest 10 day(s).
| Time | Temp. | Humidity | Pressure | Rain* | Wind** | Luminosity | Snow |
|---|---|---|---|---|---|---|---|
| 1777785177 | 8.33° C | 77% | 1032.8 hPa | - | - | - | - |
| 1777784276 | 6.67° C | 75% | 1032.8 hPa | - | - | - | - |
| 1777783376 | 6.67° C | 76% | 1032.8 hPa | - | - | - | - |
| 1777782476 | 6.11° C | 78% | 1032.9 hPa | - | - | - | - |
| 1777781576 | 5.56° C | 79% | 1032.8 hPa | - | - | - | - |
| 1777780676 | 5.56° C | 79% | 1032.6 hPa | - | - | - | - |
| 1777779775 | 6.11° C | 78% | 1032.6 hPa | - | - | - | - |
| 1777778875 | 6.11° C | 78% | 1032.5 hPa | - | - | - | - |
| 1777777975 | 6.11° C | 77% | 1032.5 hPa | - | - | - | - |
| 1777777075 | 6.11° C | 78% | 1032.5 hPa | - | - | - | - |
| 1777776174 | 6.11° C | 78% | 1032.4 hPa | - | - | - | - |
| 1777775274 | 6.11° C | 77% | 1032.6 hPa | - | - | - | - |
| 1777774373 | 6.67° C | 76% | 1032.5 hPa | - | - | - | - |
| 1777773473 | 6.67° C | 77% | 1032.5 hPa | - | - | - | - |
| 1777772579 | 6.67° C | 76% | 1032.4 hPa | - | - | - | - |
| 1777771678 | 7.22° C | 75% | 1032.4 hPa | - | - | - | - |
| 1777770778 | 7.22° C | 75% | 1032.5 hPa | - | - | - | - |
| 1777769878 | 7.22° C | 75% | 1032.5 hPa | - | - | - | - |
| 1777768978 | 7.22° C | 75% | 1032.5 hPa | - | - | - | - |
| 1777768078 | 8.33° C | 72% | 1032.4 hPa | - | - | - | - |
| 1777767177 | 8.33° C | 73% | 1032.4 hPa | - | - | - | - |
| 1777766277 | 7.78° C | 73% | 1032.4 hPa | - | - | - | - |
| 1777765377 | 7.78° C | 73% | 1032.4 hPa | - | - | - | - |
| 1777764477 | 8.33° C | 71% | 1032.5 hPa | - | - | - | - |
| 1777763577 | 8.89° C | 72% | 1032.4 hPa | - | - | - | - |
* Rain since midnight (hover to see other rain measurements)
** Current wind speed in m/s (hover to see current wind gust speed)